Location: Ottawa
(45.4170°N, 75.7000°W)
Time: 00:41:43
(UTC-04:00)

ISS - Visible Passes

Search period start: 23 June 2024 00:00
Search period end: 03 July 2024 00:00
Orbit: 410 x 425 km, 51.6° (Epoch: 22 June)

Date Brightness Start Highest point End Pass type
(mag) Time Alt. Az. Time Alt. Az. Time Alt. Az.
23 Jun -1.8 04:00:01 10° S 04:02:20 19° SE 04:04:46 10° E visible
24 Jun -1.3 03:13:45 11° SE 03:14:29 12° SE 03:15:40 10° ESE visible
25 Jun -3.2 04:00:18 17° SSW 04:02:38 46° SE 04:05:52 10° ENE visible
26 Jun -2.6 03:13:52 26° SSE 03:14:36 29° SE 03:17:32 10° ENE visible
27 Jun -1.7 02:27:21 17° ESE 02:27:21 17° ESE 02:28:55 10° E visible
27 Jun -3.7 04:00:14 14° WSW 04:03:00 75° NNW 04:06:20 10° ENE visible
28 Jun -3.8 03:13:38 37° SW 03:14:47 72° SSE 03:18:07 10° ENE visible
29 Jun -3.1 02:26:57 42° ESE 02:26:57 42° ESE 02:29:46 10° ENE visible
29 Jun -2.6 04:00:12 10° W 04:03:22 40° NNW 04:06:34 10° NE visible
30 Jun -1.5 01:40:12 17° E 01:40:12 17° E 01:41:17 10° E visible
30 Jun -3.2 03:13:05 22° W 03:15:00 54° NNW 03:18:17 10° NE visible
01 Jul -3.8 02:26:15 65° W 02:26:38 78° NNW 02:29:59 10° ENE visible
01 Jul -1.9 04:00:46 10° WNW 04:03:44 29° N 04:06:43 10° NE visible
02 Jul -2.8 01:39:20 39° ENE 01:39:20 39° ENE 01:41:36 10° ENE visible
02 Jul -2.2 03:12:12 10° W 03:15:14 33° NNW 03:18:19 10° NE visible
